Below you will find the last 24 hours of weather readings for Ashburn VA

Ashburn VA Today's Weather Data

Observed at: Ashburn, VA

Hour Observerd Temp Pressure Visibility Humidity Dew Point Wind
19:00 Partly Cloudy 72°F (22.2°C) 101.59 kPa 10 miles 69% 60.8°F (16°C) 3 mph E 83.75°
18:00 Mostly Cloudy 75°F (23.9°C) 101.59 kPa 10 miles 61% 60.8°F (16°C) 5 mph E 83.75°
17:00 Overcast 77°F (25°C) 101.59 kPa 10 miles 61% 62.6°F (17°C) 5 mph E 83.75°
16:00 Overcast 77°F (25°C) 101.59 kPa 10 miles 61% 62.6°F (17°C) 5 mph E 83.75°17 mph
15:00 Overcast 77°F (25°C) 101.59 kPa 10 miles 57% 60.8°F (16°C) 5 mph E 83.75°17 mph
14:00 Overcast 77°F (25°C) 101.59 kPa 10 miles 57% 60.8°F (16°C) 5 mph E 83.75°17 mph
13:00 Partly Cloudy 77°F (25°C) 101.59 kPa 10 miles 57% 60.8°F (16°C) 6 mph E 83.75°17 mph
12:00 Partly Cloudy 77°F (25°C) 101.59 kPa 10 miles 57% 60.8°F (16°C) 6 mph E 83.75°16 mph
11:00 Fair 75°F (23.9°C) 101.59 kPa 10 miles 61% 60.8°F (16°C) 9 mph E 83.75°17 mph
10:00 Overcast 63°F (17.2°C) 101.59 kPa 10 miles 94% 60.8°F (16°C) 5 mph E 83.75°
09:00 Overcast 63°F (17.2°C) 101.59 kPa 10 miles 94% 60.8°F (16°C) 4 mph E 83.75°
08:00 Overcast 63°F (17.2°C) 101.59 kPa 10 miles 94% 60.8°F (16°C) 3 mph E 83.75°
07:00 Overcast 63°F (17.2°C) 101.59 kPa 10 miles 94% 60.8°F (16°C) 5 mph E 83.75°
06:00 Overcast 61°F (16.1°C) 101.59 kPa 10 miles 100% 60.8°F (16°C) 3 mph E 83.75°
05:00 Overcast 61°F (16.1°C) 101.59 kPa 10 miles 100% 60.8°F (16°C) 3 mph E 83.75°
04:00 Overcast 61°F (16.1°C) 101.59 kPa 10 miles 100% 60.8°F (16°C) 5 mph E 83.75°
03:00 Partly Cloudy 63°F (17.2°C) 101.59 kPa 10 miles 94% 60.8°F (16°C) 3 mph E 83.75°
02:00 Partly Cloudy 63°F (17.2°C) 101.59 kPa 10 miles 94% 60.8°F (16°C) 4 mph S 173.75°
01:00 Partly Cloudy 64°F (17.8°C) 101.59 kPa 10 miles 88% 60.8°F (16°C) 3 mph W 263.75°
00:00 Partly Cloudy 64°F (17.8°C) 101.59 kPa 10 miles 88% 60.8°F (16°C) 3 mph W 263.75°
23:00 Fair 64°F (17.8°C) 101.59 kPa 10 miles 88% 60.8°F (16°C) 5 mph E 83.75°
22:00 Fair 68°F (20°C) 101.59 kPa 10 miles 88% 64.4°F (18°C) 3 mph NE 38.75°
21:00 Fair 68°F (20°C) 101.59 kPa 10 miles 88% 64.4°F (18°C) 3 mph E 83.75°
20:00 Fair 68°F (20°C) 101.59 kPa 10 miles 94% 66.2°F (19°C) 3 mph E 83.75°